contact:dominique.lefevre@mio.osupytheas.fr, maurice.libes@osupytheas.fr, didier.mallarino@osupytheas.fr
Project:EMSO http://www.emso-fr.org/EMSO-France
Depth: 2436.0 m
Title:EMSO Ligure Ouest : Data MII capteur CSTAR
DateTime,Latitude,Longitude,Instrument_Serial,Reference_Counts,Signal_Counts,Corrected_Signal_raw_counts,Calculated_Beam_c_inverse_meters,Internal_thermistor_counts
DateTime,Latitude,Longitude,Instrument_Serial,Reference_Counts,Signal_Counts,Corrected_Signal_raw_counts,Calculated_Beam_c_inverse_meters,Internal_thermistor_counts
2023-06-06T00:00:22,42.805,6.029,CST-1368DR,4297,4751,11737,01.142,552
2023-06-06T00:03:24,42.805,6.029,CST-1368DR,4297,4746,11726,01.146,552
2023-06-06T00:06:25,42.805,6.029,CST-1368DR,4297,4746,11726,01.146,552
2023-06-06T00:09:27,42.805,6.029,CST-1368DR,4297,4747,11728,01.145,552
2023-06-06T00:12:29,42.805,6.029,CST-1368DR,4297,4749,11734,01.143,552
2023-06-06T00:15:30,42.805,6.029,CST-1368DR,4297,4748,11730,01.145,552
2023-06-06T00:18:32,42.805,6.029,CST-1368DR,4297,4750,11736,01.143,552
2023-06-06T00:21:33,42.805,6.029,CST-1368DR,4297,4749,11733,01.144,552
2023-06-06T00:24:35,42.805,6.029,CST-1368DR,4297,4750,11736,01.143,552
2023-06-06T00:27:36,42.805,6.029,CST-1368DR,4297,4753,11742,01.140,552
2023-06-06T00:30:38,42.805,6.029,CST-1368DR,4297,4750,11735,01.143,552
2023-06-06T00:33:40,42.805,6.029,CST-1368DR,4297,4740,11710,01.151,552
2023-06-06T00:36:41,42.805,6.029,CST-1368DR,4297,4768,11779,01.128,552
2023-06-06T00:39:43,42.805,6.029,CST-1368DR,4297,4768,11779,01.128,552
2023-06-06T00:42:44,42.805,6.029,CST-1368DR,4297,4768,11780,01.128,552
2023-06-06T00:45:46,42.805,6.029,CST-1368DR,4297,4768,11780,01.128,552
2023-06-06T00:48:47,42.805,6.029,CST-1368DR,4297,4767,11778,01.128,552
2023-06-06T00:51:49,42.805,6.029,CST-1368DR,4297,4767,11777,01.129,552
2023-06-06T00:54:51,42.805,6.029,CST-1368DR,4297,4768,11779,01.128,552
2023-06-06T00:57:52,42.805,6.029,CST-1368DR,4297,4768,11779,01.128,552
2023-06-06T01:00:54,42.805,6.029,CST-1368DR,4297,4767,11777,01.129,552
2023-06-06T01:03:55,42.805,6.029,CST-1368DR,4297,4767,11778,01.128,552
2023-06-06T01:06:57,42.805,6.029,CST-1368DR,4297,4767,11778,01.128,552
2023-06-06T01:09:59,42.805,6.029,CST-1368DR,4297,4767,11778,01.128,552
2023-06-06T01:13:00,42.805,6.029,CST-1368DR,4297,4768,11779,01.128,552
2023-06-06T01:16:02,42.805,6.029,CST-1368DR,4297,4767,11778,01.128,552
2023-06-06T01:19:03,42.805,6.029,CST-1368DR,4297,4768,11780,01.128,552
2023-06-06T01:22:05,42.805,6.029,CST-1368DR,4297,4767,11778,01.128,552
2023-06-06T01:25:06,42.805,6.029,CST-1368DR,4297,4767,11778,01.128,552
2023-06-06T01:28:08,42.805,6.029,CST-1368DR,4297,4767,11778,01.128,552
2023-06-06T01:31:10,42.805,6.029,CST-1368DR,4297,4768,11779,01.128,552
2023-06-06T01:34:11,42.805,6.029,CST-1368DR,4297,4768,11780,01.128,552
2023-06-06T01:37:13,42.805,6.029,CST-1368DR,4297,4768,11779,01.128,552
2023-06-06T01:40:14,42.805,6.029,CST-1368DR,4297,4769,11782,01.127,552
2023-06-06T01:43:16,42.805,6.029,CST-1368DR,4297,4768,11780,01.128,552
2023-06-06T01:46:17,42.805,6.029,CST-1368DR,4297,4767,11778,01.128,552
2023-06-06T01:49:19,42.805,6.029,CST-1368DR,4297,4768,11779,01.128,552
2023-06-06T01:52:21,42.805,6.029,CST-1368DR,4297,4768,11780,01.128,552
2023-06-06T01:55:22,42.805,6.029,CST-1368DR,4297,4766,11776,01.129,552
2023-06-06T01:58:24,42.805,6.029,CST-1368DR,4297,4767,11778,01.128,552
2023-06-06T02:01:25,42.805,6.029,CST-1368DR,4297,4768,11779,01.128,552
2023-06-06T02:04:27,42.805,6.029,CST-1368DR,4297,4767,11778,01.128,552
2023-06-06T02:07:29,42.805,6.029,CST-1368DR,4297,4767,11778,01.128,552
2023-06-06T02:10:30,42.805,6.029,CST-1368DR,4297,4767,11777,01.129,552
2023-06-06T02:13:32,42.805,6.029,CST-1368DR,4297,4767,11776,01.129,552
2023-06-06T02:16:33,42.805,6.029,CST-1368DR,4297,4767,11778,01.128,552
2023-06-06T02:19:35,42.805,6.029,CST-1368DR,4297,4768,11780,01.128,552
2023-06-06T02:22:36,42.805,6.029,CST-1368DR,4297,4767,11778,01.128,552
2023-06-06T02:25:38,42.805,6.029,CST-1368DR,4297,4767,11777,01.129,552
2023-06-06T02:28:40,42.805,6.029,CST-1368DR,4297,4767,11778,01.128,552
2023-06-06T02:31:41,42.805,6.029,CST-1368DR,4297,4767,11778,01.128,552
2023-06-06T02:34:43,42.805,6.029,CST-1368DR,4297,4767,11778,01.128,552
2023-06-06T02:37:44,42.805,6.029,CST-1368DR,4297,4767,11778,01.128,552
2023-06-06T02:40:46,42.805,6.029,CST-1368DR,4297,4766,11776,01.129,552
2023-06-06T02:43:47,42.805,6.029,CST-1368DR,4297,4766,11775,01.129,552
2023-06-06T02:46:49,42.805,6.029,CST-1368DR,4297,4768,11779,01.128,552
2023-06-06T02:49:51,42.805,6.029,CST-1368DR,4297,4766,11775,01.129,552
2023-06-06T02:52:52,42.805,6.029,CST-1368DR,4297,4766,11775,01.129,552
2023-06-06T02:55:54,42.805,6.029,CST-1368DR,4297,4766,11776,01.129,552
2023-06-06T02:58:55,42.805,6.029,CST-1368DR,4297,4764,11770,01.131,552
2023-06-06T03:01:57,42.805,6.029,CST-1368DR,4297,4766,11776,01.129,552
2023-06-06T03:04:59,42.805,6.029,CST-1368DR,4297,4767,11777,01.129,552
2023-06-06T03:08:00,42.805,6.029,CST-1368DR,4297,4767,11778,01.128,552
2023-06-06T03:11:02,42.805,6.029,CST-1368DR,4297,4767,11777,01.129,552
2023-06-06T03:14:03,42.805,6.029,CST-1368DR,4297,4767,11777,01.129,552
2023-06-06T03:17:05,42.805,6.029,CST-1368DR,4297,4767,11776,01.129,552
2023-06-06T03:20:06,42.805,6.029,CST-1368DR,4297,4767,11778,01.128,552
2023-06-06T03:23:08,42.805,6.029,CST-1368DR,4297,4767,11778,01.128,552
2023-06-06T03:26:10,42.805,6.029,CST-1368DR,4297,4767,11778,01.128,552
2023-06-06T03:29:11,42.805,6.029,CST-1368DR,4297,4767,11778,01.128,552
2023-06-06T03:32:13,42.805,6.029,CST-1368DR,4297,4767,11778,01.128,552
2023-06-06T03:35:14,42.805,6.029,CST-1368DR,4297,4767,11778,01.128,552
2023-06-06T03:38:16,42.805,6.029,CST-1368DR,4297,4766,11775,01.129,552
2023-06-06T03:41:17,42.805,6.029,CST-1368DR,4297,4767,11778,01.128,552
2023-06-06T03:44:19,42.805,6.029,CST-1368DR,4297,4767,11778,01.128,552
2023-06-06T03:47:21,42.805,6.029,CST-1368DR,4297,4767,11778,01.128,552
2023-06-06T03:50:22,42.805,6.029,CST-1368DR,4297,4766,11776,01.129,552
2023-06-06T03:53:24,42.805,6.029,CST-1368DR,4297,4767,11776,01.129,552
2023-06-06T03:56:25,42.805,6.029,CST-1368DR,4297,4767,11778,01.128,552
2023-06-06T03:59:27,42.805,6.029,CST-1368DR,4297,4768,11779,01.128,552
2023-06-06T04:02:29,42.805,6.029,CST-1368DR,4297,4767,11778,01.128,552
2023-06-06T04:05:30,42.805,6.029,CST-1368DR,4297,4768,11780,01.128,552
2023-06-06T04:08:32,42.805,6.029,CST-1368DR,4297,4768,11780,01.128,552
2023-06-06T04:11:33,42.805,6.029,CST-1368DR,4297,4767,11778,01.128,552
2023-06-06T04:14:35,42.805,6.029,CST-1368DR,4297,4767,11778,01.128,552
2023-06-06T04:17:36,42.805,6.029,CST-1368DR,4297,4768,11780,01.128,552
2023-06-06T04:20:38,42.805,6.029,CST-1368DR,4297,4767,11778,01.128,552
2023-06-06T04:23:40,42.805,6.029,CST-1368DR,4297,4767,11778,01.128,552
2023-06-06T04:26:41,42.805,6.029,CST-1368DR,4297,4767,11778,01.128,552
2023-06-06T04:29:43,42.805,6.029,CST-1368DR,4297,4768,11780,01.128,552
2023-06-06T04:32:44,42.805,6.029,CST-1368DR,4297,4768,11779,01.128,552
2023-06-06T04:35:46,42.805,6.029,CST-1368DR,4297,4768,11779,01.128,552
2023-06-06T04:38:48,42.805,6.029,CST-1368DR,4297,4768,11779,01.128,552
2023-06-06T04:41:49,42.805,6.029,CST-1368DR,4297,4768,11779,01.128,552
2023-06-06T04:44:51,42.805,6.029,CST-1368DR,4297,4767,11777,01.129,552
2023-06-06T04:47:52,42.805,6.029,CST-1368DR,4297,4768,11779,01.128,552
2023-06-06T04:50:54,42.805,6.029,CST-1368DR,4297,4767,11778,01.128,552
2023-06-06T04:53:55,42.805,6.029,CST-1368DR,4297,4767,11776,01.129,552
2023-06-06T04:56:57,42.805,6.029,CST-1368DR,4297,4767,11776,01.129,552
2023-06-06T04:59:59,42.805,6.029,CST-1368DR,4297,4766,11775,01.129,552
2023-06-06T05:03:00,42.805,6.029,CST-1368DR,4297,4767,11778,01.128,552
2023-06-06T05:06:02,42.805,6.029,CST-1368DR,4297,4766,11775,01.129,552
2023-06-06T05:09:03,42.805,6.029,CST-1368DR,4297,4767,11776,01.129,552
2023-06-06T05:12:05,42.805,6.029,CST-1368DR,4297,4767,11778,01.128,552
2023-06-06T05:15:06,42.805,6.029,CST-1368DR,4297,4767,11778,01.128,552
2023-06-06T05:18:08,42.805,6.029,CST-1368DR,4297,4767,11778,01.128,552
2023-06-06T05:21:10,42.805,6.029,CST-1368DR,4297,4767,11778,01.128,552
2023-06-06T05:24:11,42.805,6.029,CST-1368DR,4297,4752,11741,01.141,552
2023-06-06T05:27:13,42.805,6.029,CST-1368DR,4297,4740,11711,01.151,552
2023-06-06T05:30:14,42.805,6.029,CST-1368DR,4297,4744,11720,01.148,552
2023-06-06T05:33:16,42.805,6.029,CST-1368DR,4297,4745,11723,01.147,552
2023-06-06T05:36:18,42.805,6.029,CST-1368DR,4297,4746,11725,01.146,552
2023-06-06T05:39:19,42.805,6.029,CST-1368DR,4297,4745,11723,01.147,552
2023-06-06T05:42:21,42.805,6.029,CST-1368DR,4297,4746,11726,01.146,552
2023-06-06T05:45:22,42.805,6.029,CST-1368DR,4297,4745,11724,01.147,552
2023-06-06T05:48:24,42.805,6.029,CST-1368DR,4297,4746,11725,01.146,552
2023-06-06T05:51:25,42.805,6.029,CST-1368DR,4297,4747,11728,01.145,552
2023-06-06T05:54:27,42.805,6.029,CST-1368DR,4297,4745,11724,01.147,552
2023-06-06T05:57:29,42.805,6.029,CST-1368DR,4297,4747,11727,01.146,552
2023-06-06T06:00:30,42.805,6.029,CST-1368DR,4297,4746,11725,01.146,552
2023-06-06T06:03:32,42.805,6.029,CST-1368DR,4297,4747,11727,01.146,552
2023-06-06T06:06:33,42.805,6.029,CST-1368DR,4297,4746,11725,01.146,552
2023-06-06T06:09:35,42.805,6.029,CST-1368DR,4297,4746,11726,01.146,552
2023-06-06T06:12:36,42.805,6.029,CST-1368DR,4297,4746,11726,01.146,552
2023-06-06T06:15:38,42.805,6.029,CST-1368DR,4297,4746,11726,01.146,552
2023-06-06T06:18:40,42.805,6.029,CST-1368DR,4297,4746,11726,01.146,552
2023-06-06T06:21:41,42.805,6.029,CST-1368DR,4297,4746,11726,01.146,552
2023-06-06T06:24:43,42.805,6.029,CST-1368DR,4297,4747,11728,01.145,552
2023-06-06T06:27:44,42.805,6.029,CST-1368DR,4297,4747,11727,01.146,552
2023-06-06T06:30:49,42.805,6.029,CST-1368DR,4297,4746,11725,01.146,552
2023-06-06T06:33:50,42.805,6.029,CST-1368DR,4297,4745,11723,01.147,552
2023-06-06T06:36:52,42.805,6.029,CST-1368DR,4297,4746,11726,01.146,552
2023-06-06T06:39:53,42.805,6.029,CST-1368DR,4297,4746,11726,01.146,552
2023-06-06T06:42:55,42.805,6.029,CST-1368DR,4297,4746,11725,01.146,552
2023-06-06T06:45:57,42.805,6.029,CST-1368DR,4297,4746,11726,01.146,552
2023-06-06T06:48:58,42.805,6.029,CST-1368DR,4297,4746,11726,01.146,552
2023-06-06T06:52:00,42.805,6.029,CST-1368DR,4297,4746,11726,01.146,552
2023-06-06T06:55:01,42.805,6.029,CST-1368DR,4297,4746,11725,01.146,552
2023-06-06T06:58:03,42.805,6.029,CST-1368DR,4297,4746,11726,01.146,552
2023-06-06T07:01:04,42.805,6.029,CST-1368DR,4297,4746,11726,01.146,552
2023-06-06T07:04:06,42.805,6.029,CST-1368DR,4297,4746,11726,01.146,552
2023-06-06T07:07:08,42.805,6.029,CST-1368DR,4297,4746,11725,01.146,552
2023-06-06T07:10:09,42.805,6.029,CST-1368DR,4297,4745,11724,01.147,552
2023-06-06T07:13:11,42.805,6.029,CST-1368DR,4297,4746,11725,01.146,552
2023-06-06T07:16:12,42.805,6.029,CST-1368DR,4297,4746,11726,01.146,552
2023-06-06T07:19:14,42.805,6.029,CST-1368DR,4297,4746,11725,01.146,552
2023-06-06T07:22:15,42.805,6.029,CST-1368DR,4297,4746,11726,01.146,552
2023-06-06T07:25:17,42.805,6.029,CST-1368DR,4297,4746,11726,01.146,552
2023-06-06T07:28:19,42.805,6.029,CST-1368DR,4297,4746,11726,01.146,552
2023-06-06T07:31:20,42.805,6.029,CST-1368DR,4297,4746,11725,01.146,552
2023-06-06T07:34:22,42.805,6.029,CST-1368DR,4297,4746,11725,01.146,552
2023-06-06T07:37:23,42.805,6.029,CST-1368DR,4297,4746,11725,01.146,552
2023-06-06T07:40:25,42.805,6.029,CST-1368DR,4297,4746,11725,01.146,552
2023-06-06T07:43:27,42.805,6.029,CST-1368DR,4297,4745,11724,01.147,552
2023-06-06T07:46:28,42.805,6.029,CST-1368DR,4297,4745,11724,01.147,552
2023-06-06T07:49:30,42.805,6.029,CST-1368DR,4297,4746,11726,01.146,552
2023-06-06T07:52:31,42.805,6.029,CST-1368DR,4297,4746,11725,01.146,552
2023-06-06T07:55:33,42.805,6.029,CST-1368DR,4297,4745,11723,01.147,552
2023-06-06T07:58:34,42.805,6.029,CST-1368DR,4297,4746,11726,01.146,552
2023-06-06T08:01:36,42.805,6.029,CST-1368DR,4297,4746,11726,01.146,552
2023-06-06T08:04:38,42.805,6.029,CST-1368DR,4297,4745,11723,01.147,552
2023-06-06T08:07:39,42.805,6.029,CST-1368DR,4297,4743,11718,01.149,552
2023-06-06T08:10:41,42.805,6.029,CST-1368DR,4297,4743,11718,01.149,552
2023-06-06T08:13:42,42.805,6.029,CST-1368DR,4297,4746,11725,01.146,552
2023-06-06T08:16:44,42.805,6.029,CST-1368DR,4297,4744,11720,01.148,552
2023-06-06T08:19:45,42.805,6.029,CST-1368DR,4297,4744,11720,01.148,552
2023-06-06T08:22:47,42.805,6.029,CST-1368DR,4297,4745,11723,01.147,552
2023-06-06T08:25:49,42.805,6.029,CST-1368DR,4297,4744,11721,01.148,552
2023-06-06T08:28:50,42.805,6.029,CST-1368DR,4297,4744,11721,01.148,552
2023-06-06T08:31:52,42.805,6.029,CST-1368DR,4297,4745,11723,01.147,552
2023-06-06T08:34:53,42.805,6.029,CST-1368DR,4297,4743,11719,01.148,552
2023-06-06T08:37:55,42.805,6.029,CST-1368DR,4297,4744,11721,01.148,552
2023-06-06T08:40:57,42.805,6.029,CST-1368DR,4297,4744,11721,01.148,552
2023-06-06T08:43:58,42.805,6.029,CST-1368DR,4297,4744,11721,01.148,552
2023-06-06T08:47:00,42.805,6.029,CST-1368DR,4296,4743,11721,01.148,552
2023-06-06T08:50:01,42.805,6.029,CST-1368DR,4296,4744,11722,01.147,552
2023-06-06T08:53:03,42.805,6.029,CST-1368DR,4296,4743,11722,01.147,552
2023-06-06T08:56:04,42.805,6.029,CST-1368DR,4296,4743,11721,01.148,552
2023-06-06T08:59:06,42.805,6.029,CST-1368DR,4296,4743,11720,01.148,552
2023-06-06T09:02:08,42.805,6.029,CST-1368DR,4296,4742,11717,01.149,552
2023-06-06T09:05:09,42.805,6.029,CST-1368DR,4296,4743,11722,01.147,552
2023-06-06T09:08:11,42.805,6.029,CST-1368DR,4296,4744,11723,01.147,552
2023-06-06T09:11:12,42.805,6.029,CST-1368DR,4296,4743,11720,01.148,552
2023-06-06T09:14:14,42.805,6.029,CST-1368DR,4296,4744,11723,01.147,552
2023-06-06T09:17:16,42.805,6.029,CST-1368DR,4296,4743,11722,01.147,552
2023-06-06T09:20:17,42.805,6.029,CST-1368DR,4296,4744,11723,01.147,552
2023-06-06T09:23:19,42.805,6.029,CST-1368DR,4297,4744,11720,01.148,552
2023-06-06T09:26:20,42.805,6.029,CST-1368DR,4296,4744,11723,01.147,552
2023-06-06T09:29:22,42.805,6.029,CST-1368DR,4296,4744,11723,01.147,552
2023-06-06T09:32:23,42.805,6.029,CST-1368DR,4296,4744,11723,01.147,552
2023-06-06T09:35:25,42.805,6.029,CST-1368DR,4296,4744,11722,01.147,552
2023-06-06T09:38:27,42.805,6.029,CST-1368DR,4297,4744,11720,01.148,552
2023-06-06T09:41:28,42.805,6.029,CST-1368DR,4296,4744,11723,01.147,552
2023-06-06T09:44:30,42.805,6.029,CST-1368DR,4296,4744,11723,01.147,552
2023-06-06T09:47:31,42.805,6.029,CST-1368DR,4296,4743,11722,01.147,552
2023-06-06T09:50:33,42.805,6.029,CST-1368DR,4296,4743,11722,01.147,552
2023-06-06T09:53:34,42.805,6.029,CST-1368DR,4296,4744,11722,01.147,552
2023-06-06T09:56:36,42.805,6.029,CST-1368DR,4296,4744,11724,01.147,552
2023-06-06T09:59:38,42.805,6.029,CST-1368DR,4296,4743,11720,01.148,552
2023-06-06T10:02:39,42.805,6.029,CST-1368DR,4296,4744,11722,01.147,552
2023-06-06T10:05:41,42.805,6.029,CST-1368DR,4296,4744,11724,01.147,552
2023-06-06T10:08:42,42.805,6.029,CST-1368DR,4296,4744,11723,01.147,552
2023-06-06T10:11:44,42.805,6.029,CST-1368DR,4296,4743,11721,01.148,552
2023-06-06T10:14:45,42.805,6.029,CST-1368DR,4297,4743,11718,01.149,552
2023-06-06T10:17:47,42.805,6.029,CST-1368DR,4297,4742,11715,01.150,552
2023-06-06T10:20:49,42.805,6.029,CST-1368DR,4296,4743,11720,01.148,552
2023-06-06T10:23:50,42.805,6.029,CST-1368DR,4297,4743,11719,01.148,552
2023-06-06T10:26:52,42.805,6.029,CST-1368DR,4296,4743,11722,01.147,552
2023-06-06T10:29:53,42.805,6.029,CST-1368DR,4297,4744,11720,01.148,552
2023-06-06T10:32:55,42.805,6.029,CST-1368DR,4296,4745,11725,01.146,552
2023-06-06T10:35:57,42.805,6.029,CST-1368DR,4297,4743,11718,01.149,552
2023-06-06T10:38:58,42.805,6.029,CST-1368DR,4297,4744,11720,01.148,552
2023-06-06T10:42:00,42.805,6.029,CST-1368DR,4296,4743,11721,01.148,552
2023-06-06T10:45:01,42.805,6.029,CST-1368DR,4296,4744,11723,01.147,552
2023-06-06T10:48:03,42.805,6.029,CST-1368DR,4296,4743,11722,01.147,552
2023-06-06T10:51:04,42.805,6.029,CST-1368DR,4297,4744,11720,01.148,552
2023-06-06T10:54:06,42.805,6.029,CST-1368DR,4296,4740,11714,01.150,552
2023-06-06T10:57:08,42.805,6.029,CST-1368DR,4296,4744,11722,01.147,552
2023-06-06T11:00:09,42.805,6.029,CST-1368DR,4296,4743,11722,01.147,552
2023-06-06T11:03:11,42.805,6.029,CST-1368DR,4296,4744,11723,01.147,552
2023-06-06T11:06:12,42.805,6.029,CST-1368DR,4296,4744,11723,01.147,552
2023-06-06T11:09:14,42.805,6.029,CST-1368DR,4297,4743,11717,01.149,552
2023-06-06T11:12:15,42.805,6.029,CST-1368DR,4297,4744,11720,01.148,552
2023-06-06T11:15:17,42.805,6.029,CST-1368DR,4297,4744,11721,01.148,552
2023-06-06T11:18:19,42.805,6.029,CST-1368DR,4297,4744,11720,01.148,552
2023-06-06T11:21:20,42.805,6.029,CST-1368DR,4297,4743,11718,01.149,552
2023-06-06T11:24:22,42.805,6.029,CST-1368DR,4297,4743,11717,01.149,552
2023-06-06T11:27:23,42.805,6.029,CST-1368DR,4296,4744,11723,01.147,552
2023-06-06T11:30:25,42.805,6.029,CST-1368DR,4297,4744,11720,01.148,552
2023-06-06T11:33:26,42.805,6.029,CST-1368DR,4296,4743,11720,01.148,552
2023-06-06T11:36:28,42.805,6.029,CST-1368DR,4296,4744,11723,01.147,552
2023-06-06T11:39:30,42.805,6.029,CST-1368DR,4297,4744,11720,01.148,552
2023-06-06T11:42:31,42.805,6.029,CST-1368DR,4297,4745,11723,01.147,552
2023-06-06T11:45:33,42.805,6.029,CST-1368DR,4297,4745,11724,01.147,552
2023-06-06T11:48:34,42.805,6.029,CST-1368DR,4297,4744,11720,01.148,552
2023-06-06T11:51:36,42.805,6.029,CST-1368DR,4297,4744,11720,01.148,552
2023-06-06T11:54:38,42.805,6.029,CST-1368DR,4297,4744,11720,01.148,552
2023-06-06T11:57:39,42.805,6.029,CST-1368DR,4297,4745,11723,01.147,552
2023-06-06T12:00:41,42.805,6.029,CST-1368DR,4297,4744,11720,01.148,552
2023-06-06T12:03:42,42.805,6.029,CST-1368DR,4297,4744,11721,01.148,552
2023-06-06T12:06:44,42.805,6.029,CST-1368DR,4297,4744,11720,01.148,552
2023-06-06T12:09:45,42.805,6.029,CST-1368DR,4296,4745,11726,01.146,552
2023-06-06T12:12:47,42.805,6.029,CST-1368DR,4297,4744,11720,01.148,552
2023-06-06T12:15:49,42.805,6.029,CST-1368DR,4297,4744,11720,01.148,552
2023-06-06T12:18:50,42.805,6.029,CST-1368DR,4297,4744,11720,01.148,552
2023-06-06T12:21:52,42.805,6.029,CST-1368DR,4297,4745,11724,01.147,552
2023-06-06T12:24:53,42.805,6.029,CST-1368DR,4297,4744,11720,01.148,552
2023-06-06T12:27:55,42.805,6.029,CST-1368DR,4297,4744,11720,01.148,552
2023-06-06T12:30:58,42.805,6.029,CST-1368DR,4296,4744,11723,01.147,552
2023-06-06T12:33:59,42.805,6.029,CST-1368DR,4296,4744,11724,01.147,552
2023-06-06T12:37:01,42.805,6.029,CST-1368DR,4297,4744,11721,01.148,552
2023-06-06T12:40:03,42.805,6.029,CST-1368DR,4297,4744,11721,01.148,552
2023-06-06T12:43:04,42.805,6.029,CST-1368DR,4297,4744,11721,01.148,552
2023-06-06T12:46:06,42.805,6.029,CST-1368DR,4296,4745,11726,01.146,552
2023-06-06T12:49:07,42.805,6.029,CST-1368DR,4297,4746,11725,01.146,552
2023-06-06T12:52:09,42.805,6.029,CST-1368DR,4297,4745,11723,01.147,552
2023-06-06T12:55:11,42.805,6.029,CST-1368DR,4297,4744,11720,01.148,552
2023-06-06T12:58:12,42.805,6.029,CST-1368DR,4297,4744,11721,01.148,552
2023-06-06T13:01:14,42.805,6.029,CST-1368DR,4297,4745,11723,01.147,552
2023-06-06T13:04:15,42.805,6.029,CST-1368DR,4297,4746,11725,01.146,552
2023-06-06T13:07:17,42.805,6.029,CST-1368DR,4297,4745,11724,01.147,552
2023-06-06T13:10:18,42.805,6.029,CST-1368DR,4297,4744,11721,01.148,552
2023-06-06T13:13:20,42.805,6.029,CST-1368DR,4297,4745,11723,01.147,552
2023-06-06T13:16:22,42.805,6.029,CST-1368DR,4297,4745,11723,01.147,552
2023-06-06T13:19:23,42.805,6.029,CST-1368DR,4297,4745,11723,01.147,552
2023-06-06T13:22:25,42.805,6.029,CST-1368DR,4297,4745,11723,01.147,552
2023-06-06T13:25:26,42.805,6.029,CST-1368DR,4297,4743,11719,01.148,552
2023-06-06T13:28:28,42.805,6.029,CST-1368DR,4296,4745,11726,01.146,552
2023-06-06T13:31:29,42.805,6.029,CST-1368DR,4296,4745,11725,01.146,552
2023-06-06T13:34:31,42.805,6.029,CST-1368DR,4296,4745,11725,01.146,552
2023-06-06T13:37:33,42.805,6.029,CST-1368DR,4297,4745,11723,01.147,552
2023-06-06T13:40:34,42.805,6.029,CST-1368DR,4296,4744,11723,01.147,552
2023-06-06T13:43:36,42.805,6.029,CST-1368DR,4297,4745,11723,01.147,552
2023-06-06T13:46:37,42.805,6.029,CST-1368DR,4296,4745,11725,01.146,552
2023-06-06T13:49:39,42.805,6.029,CST-1368DR,4296,4745,11725,01.146,552
2023-06-06T13:52:41,42.805,6.029,CST-1368DR,4297,4745,11724,01.147,552
2023-06-06T13:55:42,42.805,6.029,CST-1368DR,4296,4745,11726,01.146,552
2023-06-06T13:58:44,42.805,6.029,CST-1368DR,4296,4744,11723,01.147,552
2023-06-06T14:01:45,42.805,6.029,CST-1368DR,4297,4744,11720,01.148,552
2023-06-06T14:04:47,42.805,6.029,CST-1368DR,4296,4745,11725,01.146,552
2023-06-06T14:07:48,42.805,6.029,CST-1368DR,4296,4743,11722,01.147,552
2023-06-06T14:10:50,42.805,6.029,CST-1368DR,4297,4740,11712,01.151,552
2023-06-06T14:13:52,42.805,6.029,CST-1368DR,4297,4740,11710,01.151,552
2023-06-06T14:16:53,42.805,6.029,CST-1368DR,4296,4740,11712,01.151,552
2023-06-06T14:19:55,42.805,6.029,CST-1368DR,4296,4741,11715,01.150,552
2023-06-06T14:22:56,42.805,6.029,CST-1368DR,4296,4739,11710,01.151,552
2023-06-06T14:25:58,42.805,6.029,CST-1368DR,4296,4739,11712,01.151,552
2023-06-06T14:28:59,42.805,6.029,CST-1368DR,4296,4737,11707,01.152,552
2023-06-06T14:32:01,42.805,6.029,CST-1368DR,4296,4737,11707,01.152,552
2023-06-06T14:35:02,42.805,6.029,CST-1368DR,4296,4738,11709,01.152,552
2023-06-06T14:38:04,42.805,6.029,CST-1368DR,4296,4739,11710,01.151,552
2023-06-06T14:41:05,42.805,6.029,CST-1368DR,4296,4738,11709,01.152,552
2023-06-06T14:44:07,42.805,6.029,CST-1368DR,4296,4736,11704,01.153,552
2023-06-06T14:47:09,42.805,6.029,CST-1368DR,4296,4736,11702,01.154,552
2023-06-06T14:50:10,42.805,6.029,CST-1368DR,4296,4738,11707,01.152,552
2023-06-06T14:53:12,42.805,6.029,CST-1368DR,4297,4738,11706,01.153,552
2023-06-06T14:56:13,42.805,6.029,CST-1368DR,4296,4737,11706,01.153,552
2023-06-06T14:59:15,42.805,6.029,CST-1368DR,4296,4736,11703,01.154,552
2023-06-06T15:02:16,42.805,6.029,CST-1368DR,4296,4737,11706,01.153,552
2023-06-06T15:05:18,42.805,6.029,CST-1368DR,4296,4736,11702,01.154,552
2023-06-06T15:08:20,42.805,6.029,CST-1368DR,4296,4734,11699,01.155,552
2023-06-06T15:11:21,42.805,6.029,CST-1368DR,4296,4736,11702,01.154,552
2023-06-06T15:14:23,42.805,6.029,CST-1368DR,4296,4734,11699,01.155,552
2023-06-06T15:17:24,42.805,6.029,CST-1368DR,4296,4732,11693,01.157,552
2023-06-06T15:20:26,42.805,6.029,CST-1368DR,4296,4728,11684,01.160,552
2023-06-06T15:23:28,42.805,6.029,CST-1368DR,4296,4734,11699,01.155,552
2023-06-06T15:26:29,42.805,6.029,CST-1368DR,4296,4734,11699,01.155,552
2023-06-06T15:29:31,42.805,6.029,CST-1368DR,4296,4734,11698,01.156,552
2023-06-06T15:32:32,42.805,6.029,CST-1368DR,4296,4736,11703,01.154,552
2023-06-06T15:35:34,42.805,6.029,CST-1368DR,4296,4727,11680,01.162,552
2023-06-06T15:38:35,42.805,6.029,CST-1368DR,4296,4732,11693,01.157,552
2023-06-06T15:41:37,42.805,6.029,CST-1368DR,4296,4736,11704,01.153,552
2023-06-06T15:44:39,42.805,6.029,CST-1368DR,4296,4735,11702,01.154,552
2023-06-06T15:47:40,42.805,6.029,CST-1368DR,4296,4731,11691,01.158,552
2023-06-06T15:50:42,42.805,6.029,CST-1368DR,4296,4736,11702,01.154,552
2023-06-06T15:53:43,42.805,6.029,CST-1368DR,4296,4736,11704,01.153,552
2023-06-06T15:56:45,42.805,6.029,CST-1368DR,4296,4725,11676,01.163,552
2023-06-06T15:59:46,42.805,6.029,CST-1368DR,4296,4732,11693,01.157,552
2023-06-06T16:02:48,42.805,6.029,CST-1368DR,4296,4732,11693,01.157,552
2023-06-06T16:05:50,42.805,6.029,CST-1368DR,4296,4725,11675,01.163,552
2023-06-06T16:08:51,42.805,6.029,CST-1368DR,4296,4732,11693,01.157,552
2023-06-06T16:11:53,42.805,6.029,CST-1368DR,4296,4725,11676,01.163,552
2023-06-06T16:14:54,42.805,6.029,CST-1368DR,4296,4726,11679,01.162,552
2023-06-06T16:17:56,42.805,6.029,CST-1368DR,4296,4724,11673,01.164,552
2023-06-06T16:20:58,42.805,6.029,CST-1368DR,4296,4726,11678,01.162,552
2023-06-06T16:23:59,42.805,6.029,CST-1368DR,4296,4723,11670,01.165,552
2023-06-06T16:27:01,42.805,6.029,CST-1368DR,4296,4733,11697,01.156,552
2023-06-06T16:30:02,42.805,6.029,CST-1368DR,4296,4725,11677,01.163,552
2023-06-06T16:33:04,42.805,6.029,CST-1368DR,4296,4731,11691,01.158,552
2023-06-06T16:36:05,42.805,6.029,CST-1368DR,4296,4725,11677,01.163,552